User: anonymous   Login
Location: Unspecified
(0.0000°N, 0.0000°E)
Time: 08:46:59
(UTC+00:00)
Language:

PAYLOAD B - Orbit

View from above orbital plane
View from above orbital plane
View from above satellite
View from above satellite

Ground track
Ground track

The orbit data is extracted from the following two-line orbital elements,

1 27431U 02024B   23333.69486652  .00000133  00000-0  10123-3 0  9992
2 27431  99.0817   5.7079 0015068 339.0852  20.9699 14.09915750108411
Epoch (UTC): 29 November 2023 16:40:36
Eccentricity: 0.0015068
inclination: 99.0817°
perigee height: 849 km
apogee height: 870 km
right ascension of ascending node: 5.7079°
argument of perigee: 339.0852°
revolutions per day: 14.09915750
mean anomaly at epoch: 20.9699°
orbit number at epoch: 10841

The dashed part of the orbit path shows where the satellite is in the earth's shadow,  

DLR